Weather Service Report


266 
ASUS44 KEWX 221010
RWRTX 
SOUTH TEXAS REGIONAL WEATHER ROUNDUP
NATIONAL WEATHER SERVICE AUSTIN/SAN ANTONIO TX
400 AM CST SAT NOV 22 2014

NOTE: "FAIR" INDICATED FEW OR NO CLOUDS BELOW 12,000 FEET WITH NO
SIGNIFICANT WEATHER AND/OR OBSTRUCTIONS TO VISIBILITY.

* - THESE STATIONS ARE NOT NWS OR FAA STATIONS...AND ARE NOT SUBJECT
    TO NWS AND FAA QUALITY CONTROL.
 
TXZ171-172-183>190-221100-
TEXAS HILL COUNTRY AND EDWARDS PLATEAU
  
CITY           SKY/WX    TMP DP  RH WIND       PRES   REMARKS
JUNCTION       CLOUDY    65  62  90 SE8       29.98S                  
*LLANO         MOCLDY    64  64 100 SE7       30.03F FOG              
BURNET         CLOUDY    65  62  90 SE15G22   30.04F                  
*HORSESHOE BAY CLOUDY    66  66 100 SE9G17    30.01S                  
*KERRVILLE     DRIZZLE   64  61  91 SE17      29.99F                  
*FREDERICKSBRG CLOUDY    65  61  87 S13       30.00F                  
*ROCKSPRINGS   CLOUDY    63  63 100 MISG      30.00S                  
*BOERNE STAGE  CLOUDY    64  63  94 SE12      30.01F                  
*CASTROVILLE   CLOUDY    68  66  92 SE7G16    30.01S                  
HONDO          CLOUDY    63  63 100 SE18      29.99F                  
*UVALDE        CLOUDY    68  66  93 SE12      29.97S                  
DEL RIO        LGT RAIN  67  65  93 SE10      29.92S                  
LAUGHLIN AFB   CLOUDY    67  66  98 N13       29.93S                  
CARRIZO SPRGS  CLOUDY    68  64  88 SE12G17   29.93R                  
$$

TXZ173-191>194-202-209-217>225-228-221100-
CENTRAL AND SOUTH CENTRAL TEXAS
  
CITY           SKY/WX    TMP DP  RH WIND       PRES   REMARKS
GEORGETOWN     CLOUDY    64  63  94 SE7       30.03F                  
AUSTIN/BERGSTM CLOUDY    66  63  90 SE12      30.02S                  
AUSTIN/MABRY   CLOUDY    65  63  93 SE7       30.03F                  
*AUSTIN/EXEC   CLOUDY    64  63  94 SE9       30.04F                  
*LAGO VISTA    CLOUDY    65  63  94 SE8G18    30.03F                  
SAN MARCOS     CLOUDY    66  63  88 SE10      30.02F                  
NEW BRAUNFELS  CLOUDY    67  64  90 SE12      30.00F                  
RANDOLPH AFB   NOT AVBL                                               
PT SAN ANTONIO CLOUDY    68  64  88 E10       29.98F                  
SAN ANTONIO    CLOUDY    68  65  90 SE16      30.01S                  
STINSON FIELD  CLOUDY    67  65  93 E15       29.97F                  
*PLEASANTON    CLOUDY    68  65  90 E14G22    29.98F                  
*LA GRANGE     CLOUDY    65  64  96 SE5       30.04S                  
*GIDDINGS      CLOUDY    64  62  94 SE8G16    30.08F                  
*GONZALES      CLOUDY    67  65  91 SE7       30.02F                  
$$

TXZ163>164-176>182-195>201-210>213-226-227-235-221100-
SOUTHEAST TEXAS
  
CITY           SKY/WX    TMP DP  RH WIND       PRES   REMARKS
COLLEGE STN    CLOUDY    62  60  93 SE14      30.08S                  
*BRYAN         CLOUDY    62  60  94 SE10      30.09F                  
*CALDWELL      CLOUDY    63  63 100 SE12G17   30.09F                  
*CROCKETT      CLOUDY    61  57  88 SE5       30.15F                  
*BRENHAM       CLOUDY    64  62  94 SE8G16    30.08F                  
HUNTSVILLE     MOCLDY    60  56  86 SE7       30.10F                  
CONROE         CLOUDY    58  56  93 E6        30.11F                  
HOUSTON BUSH   PTCLDY    58  57  97 E9        30.10S                  
HOUSTON HOBBY  PTCLDY    64  61  90 SE12G20   30.08F                  
*HOUSTON SW AP CLEAR     54  54  99 E7        30.08F                  
PEARLAND       CLEAR     63  61  93 E7        30.10F                  
HOUSTON HOOKS  CLOUDY    60  58  92 E5        30.10F                  
ELLINGTON FLD  PTCLDY    63  63 100 E12       30.10S                  
SUGAR LAND     CLOUDY    63  60  90 E3        30.07F                  
*HOUSTON EXEC  CLOUDY    61 N/A N/A E8        30.09F HAZE             
*CLEVELAND MUN NOT AVBL                                               
*WHARTON         N/A     62  61  96 E6        30.05F                  
*COLUMBUS      CLOUDY    62  62  99 E8        30.06F                  
$$

TXZ214>216-236>238-221100-
THE UPPER TEXAS COAST
  
CITY           SKY/WX    TMP DP  RH WIND       PRES   REMARKS
*ORANGE        CLEAR     58  54  88 E8        30.16F                  
PORT ARTHUR    CLEAR     57  53  86 E13       30.13F                  
GALVESTON      CLEAR     64  62  93 E15       30.10F                  
ANGLETON       PTCLDY    61  61 100 E7        30.06F                  
*BAY CITY        N/A     67  65  90 E8        30.04F                  
PALACIOS       PTCLDY    67  64  90 E9        30.03F                  
$$

TXZ229>234-239>247-221100-
TEXAS COASTAL BEND AND RIO GRANDE PLAINS
  
CITY           SKY/WX    TMP DP  RH WIND       PRES   REMARKS
VICTORIA       CLOUDY    68  64  87 SE9       30.03F                  
*BEEVILLE      CLOUDY    69  68  95 SE13      29.99S                  
ROCKPORT       PTCLDY    67  64  90 SE15      29.99F                  
*PORT ARANSAS  CLOUDY    69  66  89 SE17G24   29.97F                  
*PORT LAVACA   CLEAR     63  61  95 SE9       30.03S                  
*INGLESIDE     CLOUDY    71  66  83 SE16G23   29.97F                  
CORPUS CHRISTI MOCLDY    71  67  87 SE13G22   29.98F                  
CORPUS NAS     LGT RAIN  69  68  96 SE17      29.96F                  
*ROBSTOWN      NOT AVBL                                               
ALICE          CLOUDY    70  67  90 SE12      29.97S                  
KINGSVILLE NAS CLOUDY    71  69  93 SE10      29.98R                  
COTULLA        CLOUDY    71  66  84 SE15      29.95S                  
*FAITH RANCH   CLOUDY    70  64  83 SE10G21   29.93R                  
LAREDO         LGT RAIN  72  67  84 SE17      29.93F                  
$$

TXZ248>255-221100-
DEEP SOUTH TEXAS
  
CITY           SKY/WX    TMP DP  RH WIND       PRES   REMARKS
BROWNSVILLE    CLOUDY    72  70  93 SE12      29.98F                  
PORT ISABEL    MOCLDY    71  68  90 SE12      29.97F                  
*SOUTH PADRE   CLOUDY    68  68 100 SE10      29.98F VSB 1            
HARLINGEN      MOCLDY    71  69  93 SE10      29.96F                  
*HEBBRONVILLE  CLOUDY    70  67  89 SE15G23   29.95S                  
MCALLEN        CLOUDY    70  68  93 SE12      29.95F                  
*WESLACO       CLOUDY    71  67  87 SE6       29.95F                  
FALFURRIAS     MOCLDY    72  67  84 E9        29.95F                  
EDINBURG       CLOUDY    73  68  86 SE10      29.96S                  
*ZAPATA        CLOUDY    71  67  87 SE14G24   29.90F                  
$$

TXZ213>215-236>238-242>244-246-247-251-254-255-221100-
CMAN STATIONS
  
STATION/POSITION TIME  TEMP    WIND        PRES    WAVE
                       AIR SEA DIR/SP/G            HT/PER
                 (UTC) (F)     (DEG/KT/KT) (MB)    (FT/S)
SABINE PASS      1000   60 58  110/ 10/ 12 1020.3
SEA RIM ST PARK  1000   60     110/ 11/ 12 1020.8
NORTH JETTY/GLS  1000   63 60  130/ 17/ 18   N/A
EAGLE POINT      1000   61 56  130/ 14/ 16 1019.0
MORGANS POINT    1000   61     110/ 13/ 16 1019.0
MISSION/ARANSAS  0900          110/ 14     1017.0
PORT O'CONNOR    1000          120/ 11/ 12   N/A
PORT ARANSAS     1000   69 64  110/ 19/ 20 1015.2
MALAQUITE BEACH  1000   69 67  100/ 15/ 16 1014.3
BAFFIN BAY       1000   69 73  120/ 13/ 16 1014.8
PORT ISABEL      1000   69 63  130/  8/ 10 1015.0
$$

GMZ080-GMZ150>470-221100-
OFFSHORE BUOY REPORTS
  
STATION/POSITION TIME  TEMP    WIND        PRES    WAVE
                       AIR SEA DIR/SP/G            HT/PER
                 (UTC) (F)     (DEG/KT/KT) (MB)    (FT/S)
20 E GALVESTON   1000   64 63  100/ 14/ 14 1019.2    6/ 7
90 E PT ARANSAS  1000   74 73  120/ 19/ 23 1017.5    6/ 7
35 NE PT MANSFLD 1000   74 74  130/ 21/ 25 1015.0    6/ 7
200 E PT ISABEL  1000   74 75  110/ 16/ 19 1017.7    6/ 6
$$

Return to Home page


Western Regional Climate Center, wrcc@dri.edu